TimeCST,TemperatureF,Dew PointF,Humidity,Sea Level PressureIn,VisibilityMPH,Wind Direction,Wind SpeedMPH,Gust SpeedMPH,PrecipitationIn,Events,Conditions,WindDirDegrees,DateUTC
12:15 AM,42.8,28.4,57,29.98,10.0,SSW,10.4,-,N/A,,Clear,210,2013-01-19 06:15:00
12:35 AM,41.0,28.4,61,29.99,10.0,SSW,10.4,-,N/A,,Clear,210,2013-01-19 06:35:00
12:55 AM,41.0,28.4,61,29.99,10.0,SSW,10.4,-,N/A,,Clear,210,2013-01-19 06:55:00
1:15 AM,41.0,28.4,61,29.98,10.0,SW,9.2,-,N/A,,Clear,220,2013-01-19 07:15:00
1:35 AM,41.0,28.4,61,29.99,10.0,SSW,10.4,-,N/A,,Clear,210,2013-01-19 07:35:00
1:55 AM,41.0,28.4,61,29.99,10.0,SW,10.4,-,N/A,,Clear,220,2013-01-19 07:55:00
2:15 AM,41.0,28.4,61,29.98,10.0,SSW,10.4,-,N/A,,Clear,210,2013-01-19 08:15:00
2:35 AM,39.2,28.4,65,29.98,10.0,SSW,11.5,-,N/A,,Clear,210,2013-01-19 08:35:00
2:55 AM,39.2,28.4,65,29.97,10.0,SSW,10.4,-,N/A,,Clear,210,2013-01-19 08:55:00
3:15 AM,39.2,28.4,65,29.97,10.0,SSW,10.4,-,N/A,,Clear,210,2013-01-19 09:15:00
3:35 AM,39.2,28.4,65,29.96,10.0,SSW,12.7,-,N/A,,Clear,200,2013-01-19 09:35:00
3:55 AM,39.2,28.4,65,29.96,10.0,SSW,11.5,-,N/A,,Clear,210,2013-01-19 09:55:00
4:15 AM,39.2,28.4,65,29.94,10.0,SSW,12.7,-,N/A,,Clear,210,2013-01-19 10:15:00
4:35 AM,41.0,28.4,61,29.94,10.0,SSW,12.7,-,N/A,,Clear,210,2013-01-19 10:35:00
4:55 AM,41.0,30.2,65,29.93,10.0,SSW,15.0,-,N/A,,Clear,210,2013-01-19 10:55:00
5:15 AM,39.2,30.2,70,29.93,10.0,SSW,15.0,-,N/A,,Clear,210,2013-01-19 11:15:00
5:35 AM,39.2,30.2,70,29.93,10.0,SW,13.8,-,N/A,,Clear,220,2013-01-19 11:35:00
7:15 AM,39.2,30.2,70,29.91,10.0,SW,11.5,-,N/A,,Clear,220,2013-01-19 13:15:00
7:55 AM,39.2,30.2,70,29.90,10.0,SW,15.0,20.7,N/A,,Clear,220,2013-01-19 13:55:00
8:15 AM,42.8,30.2,61,29.90,10.0,SW,16.1,20.7,N/A,,Clear,230,2013-01-19 14:15:00
8:35 AM,42.8,30.2,61,29.90,10.0,SW,15.0,-,N/A,,Clear,220,2013-01-19 14:35:00
9:35 AM,46.4,32.0,57,29.92,10.0,SW,18.4,25.3,N/A,,Clear,230,2013-01-19 15:35:00
9:55 AM,48.2,33.8,58,29.92,10.0,SW,16.1,23.0,N/A,,Clear,230,2013-01-19 15:55:00
10:15 AM,48.2,33.8,58,29.91,10.0,SW,15.0,23.0,N/A,,Clear,230,2013-01-19 16:15:00
10:35 AM,48.2,33.8,58,29.91,10.0,SW,17.3,-,N/A,,Clear,220,2013-01-19 16:35:00
10:55 AM,50.0,33.8,54,29.90,10.0,WSW,15.0,19.6,N/A,,Clear,240,2013-01-19 16:55:00
11:15 AM,51.8,33.8,50,29.90,10.0,WSW,17.3,25.3,N/A,,Clear,240,2013-01-19 17:15:00
11:35 AM,51.8,33.8,50,29.89,10.0,West,16.1,21.9,N/A,,Clear,260,2013-01-19 17:35:00
11:55 AM,50.0,33.8,54,29.88,10.0,West,20.7,-,N/A,,Clear,260,2013-01-19 17:55:00
12:15 PM,51.8,33.8,50,29.87,10.0,WSW,18.4,23.0,N/A,,Clear,250,2013-01-19 18:15:00
12:35 PM,51.8,33.8,50,29.87,10.0,WSW,15.0,25.3,N/A,,Clear,250,2013-01-19 18:35:00
12:55 PM,53.6,32.0,44,29.87,10.0,WSW,18.4,24.2,N/A,,Clear,250,2013-01-19 18:55:00
1:15 PM,53.6,32.0,44,29.87,10.0,WSW,13.8,23.0,N/A,,Clear,240,2013-01-19 19:15:00
1:55 PM,55.4,30.2,38,29.86,10.0,WSW,12.7,-,N/A,,Clear,240,2013-01-19 19:55:00
2:15 PM,55.4,30.2,38,29.86,10.0,WSW,15.0,-,N/A,,Clear,250,2013-01-19 20:15:00
2:35 PM,55.4,28.4,36,29.85,10.0,WSW,19.6,23.0,N/A,,Clear,240,2013-01-19 20:35:00
2:55 PM,55.4,28.4,36,29.85,10.0,WSW,15.0,-,N/A,,Clear,250,2013-01-19 20:55:00
3:15 PM,55.4,30.2,38,29.86,10.0,WSW,12.7,16.1,N/A,,Clear,250,2013-01-19 21:15:00
3:35 PM,55.4,28.4,36,29.87,10.0,WSW,17.3,21.9,N/A,,Clear,250,2013-01-19 21:35:00
3:55 PM,55.4,26.6,33,29.88,10.0,West,19.6,23.0,N/A,,Clear,260,2013-01-19 21:55:00
4:15 PM,55.4,24.8,31,29.89,10.0,West,15.0,23.0,N/A,,Clear,260,2013-01-19 22:15:00
4:35 PM,55.4,26.6,33,29.90,10.0,West,15.0,-,N/A,,Clear,270,2013-01-19 22:35:00
4:55 PM,53.6,26.6,35,29.91,10.0,West,9.2,-,N/A,,Clear,270,2013-01-19 22:55:00
5:15 PM,51.8,26.6,38,29.93,10.0,West,11.5,-,N/A,,Clear,270,2013-01-19 23:15:00
5:35 PM,51.8,26.6,38,29.94,10.0,West,13.8,18.4,N/A,,Clear,270,2013-01-19 23:35:00
5:55 PM,50.0,26.6,40,29.96,10.0,West,11.5,-,N/A,,Clear,280,2013-01-19 23:55:00
6:15 PM,48.2,28.4,46,29.97,10.0,West,12.7,-,N/A,,Clear,280,2013-01-20 00:15:00
6:35 PM,50.0,28.4,43,29.99,10.0,WNW,12.7,-,N/A,,Clear,300,2013-01-20 00:35:00
6:55 PM,50.0,26.6,40,30.00,10.0,NW,18.4,26.5,N/A,,Clear,310,2013-01-20 00:55:00
7:15 PM,48.2,28.4,46,30.01,10.0,WNW,13.8,21.9,N/A,,Clear,300,2013-01-20 01:15:00
7:35 PM,46.4,28.4,50,30.02,10.0,WNW,15.0,20.7,N/A,,Clear,290,2013-01-20 01:35:00
7:55 PM,46.4,30.2,53,30.03,10.0,WNW,13.8,18.4,N/A,,Clear,290,2013-01-20 01:55:00
8:15 PM,46.4,30.2,53,30.04,10.0,WNW,13.8,-,N/A,,Clear,290,2013-01-20 02:15:00
8:35 PM,46.4,28.4,50,30.05,10.0,WNW,19.6,33.4,N/A,,Clear,300,2013-01-20 02:35:00
8:55 PM,44.6,28.4,53,30.06,10.0,NW,17.3,21.9,N/A,,Clear,320,2013-01-20 02:55:00
9:15 PM,44.6,28.4,53,30.06,10.0,NW,13.8,27.6,N/A,,Clear,310,2013-01-20 03:15:00
9:35 PM,42.8,30.2,61,30.08,10.0,NW,17.3,21.9,N/A,,Clear,310,2013-01-20 03:35:00
9:55 PM,42.8,28.4,57,30.08,10.0,NW,13.8,19.6,N/A,,Clear,310,2013-01-20 03:55:00
10:15 PM,42.8,28.4,57,30.09,10.0,NW,18.4,26.5,N/A,,Scattered Clouds,310,2013-01-20 04:15:00
10:35 PM,41.0,23.0,49,30.11,10.0,NW,19.6,32.2,N/A,,Scattered Clouds,310,2013-01-20 04:35:00
10:55 PM,39.2,17.6,42,30.12,10.0,NW,16.1,23.0,N/A,,Clear,310,2013-01-20 04:55:00
11:15 PM,37.4,15.8,41,30.14,10.0,NW,17.3,28.8,N/A,,Clear,320,2013-01-20 05:15:00
11:35 PM,35.6,21.2,56,30.16,10.0,NNW,18.4,31.1,N/A,,Clear,330,2013-01-20 05:35:00
11:55 PM,33.8,23.0,65,30.18,10.0,NNW,17.3,27.6,N/A,,Scattered Clouds,330,2013-01-20 05:55:00